Regional Weather Roundup
Issued by NWS

Home | Current Version | Previous Version | Text Only | Print | Product List | Glossary Off
Versions: 1 2 3 4 5 6 7 8 9 10 11 12 13 14 15 16 17 18 19 20 21 22 23 24 25 26 27 28 29 30 31 32 33 34 35 36 37 38 39 40 41 42 43 44 45 46 47 48 49 50

000
ASUS43 KFSD 030702
RWRSD

WEATHER ROUNDUP FOR SOUTH DAKOTA
NATIONAL WEATHER SERVICE SIOUX FALLS SD
200 AM CDT SUN MAY 03 2015

NOTE: "FAIR" INDICATES FEW OR NO CLOUDS BELOW 12,000 FEET WITH NO
SIGNIFICANT WEATHER AND/OR OBSTRUCTIONS TO VISIBILITY.


SDZ001>005-009-010-012>017-030800-
NORTHWEST AND NORTH CENTRAL SOUTH DAKOTA

CITY           SKY/WX    TMP DP  RH WIND       PRES   REMARKS
BUFFALO          N/A     60  32  34 N21       29.75R
FAITH            N/A     51  30  44 NW9       29.73R
MOBRIDGE       PTCLDY    49  33  54 N3        29.67R
$$

SDZ012>016-024>037-041>051-057-063-072>074-030800-
SOUTHWEST AND SOUTH CENTRAL SOUTH DAKOTA

CITY           SKY/WX    TMP DP  RH WIND       PRES   REMARKS
RAPID CTY ARPT MOCLDY    55  34  45 W7        29.77R
PIERRE         CLEAR     56  32  40 NE8       29.66S
CUSTER         MOCLDY    44  28  53 CALM      29.87S
ELLSWORTH AFB  CLOUDY    55  35  46 W7        29.77R
PHILIP         MOCLDY    48  30  49 W9        29.71R
PINE RIDGE     MOCLDY    45  38  76 CALM      29.78R
WINNER         FAIR      64  37  36 VRB3      29.70R
$$

SDZ004>011-016>023-039-040-030800-
NORTHEAST SOUTH DAKOTA

CITY           SKY/WX    TMP DP  RH WIND       PRES   REMARKS
ABERDEEN       MOCLDY    57  48  72 N6        29.65S
WATERTOWN      MOCLDY    61  53  75 SW7       29.70R
BROOKINGS      PTCLDY    61  54  77 S12       29.72R
SISSETON         N/A     66  52  60 N5        29.69R
$$

SDZ017-020-022-023-036>040-048>070-030800-
SOUTHEAST SOUTH DAKOTA

CITY           SKY/WX    TMP DP  RH WIND       PRES   REMARKS
SIOUX FALLS    CLOUDY    62  54  74 S8        29.70S
HURON          MOCLDY    68  55  63 S13       29.66F
MITCHELL       CLOUDY    63  55  75 SE10      29.65F
YANKTON        CLOUDY    70  54  56 S16G24    29.68S
$$

ABBREVIATIONS USED IN REMARKS
   TC - TEMPERATURE IN CELSIUS
  WCI - WIND CHILL INDEX
   HX - HEAT INDEX
  VSB - VISIBILITY



USA.gov is the U.S. government's official web portal to all federal, state and local government web resources and services.